FW3096 Weather Reports


Display with metric or nautical units.
time (UTC)temp
F
wind
direction
speed
MPH
gust
MPH
rain 1hr
in
rain 24hr
in
rain mn
in
humidity
%
barometer
mb
20260831012505 76 333 0.0 0.0 0.00 0.03 0.03 91 1020.3
20260831012006 76 333 0.0 0.0 0.00 0.03 0.03 91 1020.4
20260831011504 76 333 0.0 0.0 0.00 0.03 0.03 91 1020.3
20260831011008 76 333 0.0 0.0 0.00 0.03 0.03 91 1020.3
20260831005506 76 333 0.0 0.0 0.00 0.03 0.03 90 1020.2
20260831005006 76 333 0.0 0.0 0.00 0.03 0.03 90 1020.2
20260831004504 76 333 0.0 0.0 0.00 0.03 0.03 90 1020.2
20260831004008 76 333 0.0 0.0 0.00 0.03 0.03 90 1020.1
20260831003504 77 333 0.0 0.0 0.00 0.03 0.03 89 1019.9
20260831003005 77 333 0.0 0.0 0.00 0.03 0.03 89 1019.7
20260831002005 77 333 0.0 0.0 0.00 0.03 0.03 89 1019.9
20260831001507 77 333 0.0 0.0 0.00 0.03 0.03 89 1019.8
20260831001006 77 333 0.0 0.0 0.00 0.03 0.03 89 1019.7
20260831000504 77 333 0.0 0.0 0.00 0.03 0.03 89 1019.7
20260831000006 77 333 0.0 0.0 0.00 0.03 0.03 88 1019.6
20260830235506 77 333 0.0 0.0 0.00 0.03 0.03 88 1019.7
20260830234005 77 333 0.0 0.0 0.00 0.03 0.03 88 1019.6
20260830233504 77 333 0.0 0.0 0.00 0.03 0.03 88 1019.7
20260830233005 77 333 0.0 0.0 0.00 0.03 0.03 87 1019.8
20260830232504 77 333 0.0 0.0 0.00 0.03 0.03 87 1019.7
20260830232007 78 333 0.0 0.0 0.00 0.03 0.03 86 1019.7
20260830231504 78 333 0.0 0.0 0.00 0.03 0.03 85 1019.7
20260830231006 78 333 0.0 0.0 0.00 0.03 0.03 84 1019.8
20260830230507 79 333 0.0 0.0 0.00 0.03 0.03 83 1019.7
20260830230005 79 333 0.0 0.0 0.00 0.03 0.03 82 1019.8
20260830225506 80 333 0.0 0.0 0.00 0.03 0.03 81 1019.7
20260830225005 80 333 0.0 4.0 0.00 0.03 0.03 81 1019.7
20260830224504 80 333 2.0 4.0 0.00 0.03 0.03 81 1019.8
20260830224007 80 144 1.0 2.0 0.00 0.03 0.03 81 1019.8
20260830223504 81 144 1.0 5.0 0.00 0.03 0.03 80 1019.7
20260830223005 81 300 2.0 5.0 0.00 0.03 0.03 79 1019.7
20260830222505 81 190 1.0 3.0 0.00 0.03 0.03 80 1019.6
20260830222005 81 346 1.0 3.0 0.00 0.03 0.03 79 1019.7
20260830221504 82 336 1.0 4.0 0.00 0.03 0.03 80 1019.7
20260830220504 82 265 0.0 7.0 0.00 0.03 0.03 79 1019.7
20260830215005 82 286 2.0 3.0 0.00 0.03 0.03 79 1019.4
20260830214504 81 179 1.0 3.0 0.00 0.03 0.03 79 1019.5
20260830214006 81 221 0.0 4.0 0.00 0.03 0.03 80 1019.5
20260830213504 82 229 1.0 4.0 0.00 0.03 0.03 77 1019.5
20260830213006 82 282 1.0 4.0 0.00 0.03 0.03 77 1019.5
20260830212503 82 190 0.0 4.0 0.00 0.03 0.03 78 1019.5
20260830212007 82 205 1.0 4.0 0.00 0.03 0.03 79 1019.5
20260830211504 82 178 2.0 6.0 0.00 0.03 0.03 78 1019.6
20260830211005 82 267 2.0 6.0 0.00 0.03 0.03 78 1019.5
20260830210007 81 155 1.0 7.0 0.00 0.03 0.03 79 1019.7
20260830205005 82 154 1.0 6.0 0.00 0.03 0.03 78 1019.7
20260830204504 81 310 1.0 4.0 0.00 0.03 0.03 79 1019.7
20260830203504 82 302 1.0 8.0 0.00 0.03 0.03 78 1019.7
20260830203009 82 302 4.0 8.0 0.00 0.03 0.03 77 1019.7
20260830202506 82 355 1.0 5.0 0.00 0.03 0.03 79 1019.7
20260830202005 82 163 2.0 5.0 0.00 0.03 0.03 77 1019.8
20260830201504 82 82 0.0 9.0 0.00 0.03 0.03 79 1019.8
20260830201010 81 291 3.0 9.0 0.00 0.03 0.03 77 1019.8
20260830200504 81 257 3.0 6.0 0.00 0.03 0.03 78 1020.0
20260830200006 81 183 2.0 8.0 0.00 0.03 0.03 79 1020.0
20260830195005 82 314 1.0 6.0 0.00 0.03 0.03 77 1020.1
20260830194505 80 319 1.0 6.0 0.00 0.03 0.03 79 1020.2
20260830194004 81 181 2.0 6.0 0.00 0.03 0.03 78 1020.3
20260830193503 80 54 2.0 5.0 0.00 0.03 0.03 78 1020.4
20260830193005 80 311 1.0 6.0 0.00 0.03 0.03 78 1020.5
20260830192503 80 247 2.0 6.0 0.00 0.03 0.03 77 1020.6
20260830192008 80 252 1.0 5.0 0.00 0.03 0.03 77 1020.7
20260830191505 80 286 2.0 5.0 0.00 0.03 0.03 76 1020.7
20260830191005 80 188 1.0 7.0 0.00 0.03 0.03 76 1020.8
20260830190503 81 242 2.0 7.0 0.00 0.03 0.03 74 1020.8
20260830190006 82 31 2.0 8.0 0.00 0.03 0.03 73 1020.7
20260830185503 83 350 2.0 10.0 0.00 0.03 0.03 73 1020.8
20260830185006 83 192 3.0 10.0 0.00 0.03 0.03 71 1020.8
20260830184503 83 180 4.0 9.0 0.00 0.03 0.03 71 1020.8
20260830184004 83 155 3.0 8.0 0.00 0.03 0.03 72 1020.9
20260830183004 82 300 2.0 5.0 0.00 0.03 0.03 73 1020.9
20260830182503 82 221 2.0 9.0 0.00 0.03 0.03 72 1021.1
20260830181004 83 249 2.0 9.0 0.00 0.03 0.03 71 1021.2
20260830180504 83 350 2.0 10.0 0.00 0.03 0.03 72 1021.3
20260830180006 82 275 2.0 7.0 0.00 0.03 0.03 74 1021.3
20260830175006 82 183 1.0 6.0 0.00 0.03 0.03 74 1021.3
20260830174504 82 139 3.0 5.0 0.00 0.03 0.03 75 1021.4
20260830174004 82 141 1.0 6.0 0.00 0.03 0.03 77 1021.4
20260830173505 81 302 3.0 6.0 0.00 0.03 0.03 75 1021.6
20260830173005 81 110 1.0 6.0 0.00 0.03 0.03 78 1021.6
20260830172504 80 263 3.0 7.0 0.00 0.03 0.03 78 1021.7
20260830171504 80 178 2.0 8.0 0.00 0.03 0.03 78 1021.9
20260830170010 81 194 1.0 8.0 0.00 0.03 0.03 78 1022.0
20260830165005 81 265 1.0 9.0 0.00 0.03 0.03 78 1022.0
20260830164004 79 157 1.0 5.0 0.00 0.03 0.03 80 1022.1
20260830163504 78 163 0.0 4.0 0.00 0.03 0.03 81 1022.2
20260830163005 79 350 1.0 4.0 0.00 0.03 0.03 81 1022.2
20260830162503 78 194 1.0 5.0 0.00 0.03 0.03 80 1022.2
20260830162005 79 78 2.0 5.0 0.00 0.03 0.03 80 1022.3
20260830161503 78 170 2.0 4.0 0.00 0.03 0.03 81 1022.4
20260830161004 78 277 1.0 5.0 0.00 0.03 0.03 82 1022.4
20260830160504 78 236 1.0 5.0 0.00 0.03 0.03 80 1022.5
20260830160004 78 180 2.0 6.0 0.00 0.03 0.03 79 1022.5
20260830155502 78 49 1.0 6.0 0.00 0.03 0.03 79 1022.5
20260830155005 78 296 3.0 7.0 0.00 0.03 0.03 79 1022.6
20260830154503 79 313 3.0 7.0 0.00 0.03 0.03 78 1022.5
20260830154004 79 271 2.0 7.0 0.00 0.03 0.03 82 1022.5
20260830153505 78 228 3.0 5.0 0.00 0.03 0.03 81 1022.4
20260830153004 78 341 3.0 6.0 0.00 0.03 0.03 81 1022.5
20260830152503 78 209 3.0 7.0 0.00 0.03 0.03 82 1022.5
20260830152005 77 153 1.0 8.0 0.00 0.03 0.03 84 1022.5
20260830151503 77 202 3.0 8.0 0.00 0.03 0.03 83 1022.6
20260830151003 76 69 2.0 5.0 0.00 0.03 0.03 86 1022.7
20260830150504 77 13 0.0 5.0 0.00 0.03 0.03 84 1022.6
20260830150005 77 253 1.0 5.0 0.00 0.03 0.03 86 1022.6
20260830145004 76 298 2.0 9.0 0.00 0.03 0.03 87 1022.7
20260830144503 76 179 1.0 9.0 0.00 0.03 0.03 88 1022.6
20260830143004 74 74 0.0 1.0 0.00 0.03 0.03 93 1022.6
20260830142503 73 63 0.0 3.0 0.00 0.03 0.03 93 1022.7
20260830142005 73 134 0.0 3.0 0.00 0.03 0.03 94 1022.8
20260830141503 72 98 0.0 1.0 0.00 0.03 0.03 95 1023.0
20260830141004 72 113 0.0 2.0 0.00 0.03 0.03 95 1023.0
20260830140505 71 194 1.0 6.0 0.00 0.03 0.03 96 1023.0
20260830133504 66 295 0.0 0.0 0.03 0.03 0.03 98 1023.2
20260830133005 65 295 0.0 0.0 0.03 0.03 0.03 98 1023.3
20260830132503 65 295 0.0 1.0 0.03 0.03 0.03 98 1023.4
20260830132005 65 295 0.0 1.0 0.03 0.03 0.03 98 1023.3
20260830131503 64 295 0.0 0.0 0.03 0.03 0.03 98 1023.4
20260830131004 64 295 0.0 0.0 0.03 0.03 0.03 98 1023.4
20260830130504 63 295 0.0 0.0 0.03 0.03 0.03 98 1023.6
20260830125502 63 295 0.0 0.0 0.03 0.03 0.03 98 1023.8
20260830125005 63 295 0.0 0.0 0.03 0.03 0.03 97 1023.9
20260830124503 63 295 0.0 0.0 0.02 0.02 0.02 98 1023.9
20260830124004 62 295 0.0 0.0 0.00 0.00 0.00 98 1024.0
20260830123504 62 295 0.0 0.0 0.00 0.00 0.00 97 1024.0
20260830123004 62 295 0.0 0.0 0.00 0.00 0.00 97 1024.0
20260830122005 61 295 0.0 0.0 0.00 0.00 0.00 97 1023.9
20260830121004 61 295 0.0 0.0 0.00 0.00 0.00 97 1023.9
20260830120504 61 295 0.0 0.0 0.00 0.00 0.00 97 1023.8
20260830120005 60 295 0.0 0.0 0.00 0.00 0.00 97 1023.8
20260830115503 60 295 0.0 0.0 0.00 0.00 0.00 97 1023.8
20260830114503 60 295 0.0 0.0 0.00 0.00 0.00 97 1023.7
20260830114004 60 295 0.0 0.0 0.00 0.00 0.00 97 1023.6
20260830113504 59 295 0.0 0.0 0.00 0.00 0.00 97 1023.7
20260830113004 59 295 0.0 0.0 0.00 0.00 0.00 97 1023.7
20260830112004 59 295 0.0 0.0 0.00 0.00 0.00 97 1023.8
20260830111005 58 295 0.0 0.0 0.00 0.00 0.00 96 1023.9
20260830110502 58 295 0.0 0.0 0.00 0.00 0.00 96 1023.8
20260830110005 58 295 0.0 0.0 0.00 0.00 0.00 96 1023.8
20260830105504 58 295 0.0 0.0 0.00 0.00 0.00 96 1023.9
20260830104503 58 295 0.0 0.0 0.00 0.00 0.00 96 1023.8
20260830104005 58 295 0.0 0.0 0.00 0.00 0.00 96 1023.9
20260830103503 58 295 0.0 0.0 0.00 0.00 0.00 96 1023.8
20260830103003 57 295 0.0 0.0 0.00 0.00 0.00 96 1023.8
20260830102504 57 295 0.0 0.0 0.00 0.00 0.00 96 1023.8
20260830101503 57 295 0.0 0.0 0.00 0.00 0.00 96 1023.8
20260830100502 57 295 0.0 0.0 0.00 0.00 0.00 96 1023.9
20260830100005 57 295 0.0 0.0 0.00 0.00 0.00 96 1023.8
20260830095504 57 295 0.0 0.0 0.00 0.00 0.00 95 1023.8
20260830095004 57 295 0.0 0.0 0.00 0.00 0.00 95 1023.8
20260830094502 57 295 0.0 0.0 0.00 0.00 0.00 95 1023.8
20260830093503 57 295 0.0 0.0 0.00 0.00 0.00 95 1023.9
20260830093005 57 295 0.0 0.0 0.00 0.00 0.00 95 1023.9
20260830092504 57 295 0.0 0.0 0.00 0.00 0.00 95 1024.0
20260830092004 57 295 0.0 0.0 0.00 0.00 0.00 95 1023.8
20260830091504 57 295 0.0 0.0 0.00 0.00 0.00 95 1023.7
20260830091004 57 295 0.0 0.0 0.00 0.00 0.00 95 1023.8
20260830090502 58 295 0.0 0.0 0.00 0.00 0.00 95 1023.8
20260830090005 58 295 0.0 0.0 0.00 0.00 0.00 95 1023.8
20260830085503 58 295 0.0 0.0 0.00 0.00 0.00 95 1023.7
20260830084504 58 295 0.0 0.0 0.00 0.00 0.00 95 1023.8
20260830084004 58 295 0.0 0.0 0.00 0.00 0.00 95 1023.8
20260830083503 58 295 0.0 0.0 0.00 0.00 0.00 95 1023.9
20260830083005 58 295 0.0 0.0 0.00 0.00 0.00 95 1023.9
20260830082503 58 295 0.0 0.0 0.00 0.00 0.00 95 1023.9
20260830081504 57 295 0.0 0.0 0.00 0.00 0.00 95 1024.1
20260830081003 57 295 0.0 1.0 0.00 0.00 0.00 95 1024.2
20260830080502 57 295 0.0 1.0 0.00 0.00 0.00 95 1024.3
20260830080006 57 295 0.0 0.0 0.00 0.00 0.00 95 1024.3
20260830075503 57 295 0.0 0.0 0.00 0.00 0.00 95 1024.4
20260830075004 57 295 0.0 0.0 0.00 0.00 0.00 95 1024.3
20260830073503 57 295 0.0 0.0 0.00 0.00 0.00 94 1024.3
20260830073005 57 295 0.0 0.0 0.00 0.00 0.00 94 1024.3
20260830072502 57 295 0.0 0.0 0.00 0.00 0.00 94 1024.3
20260830072004 57 295 0.0 0.0 0.00 0.00 0.00 94 1024.3
20260830071504 57 295 0.0 0.0 0.00 0.00 0.00 94 1024.3
20260830070502 57 295 0.0 0.0 0.00 0.00 0.00 94 1024.3
20260830070007 57 295 0.0 0.0 0.00 0.00 0.00 94 1024.4
20260830065502 57 295 0.0 0.0 0.00 0.00 0.00 94 1024.4
20260830065003 57 295 0.0 0.0 0.00 0.00 0.00 94 1024.5
20260830064504 57 295 0.0 0.0 0.00 0.00 0.00 94 1024.6
20260830064004 58 295 0.0 0.0 0.00 0.00 0.00 94 1024.5
20260830063503 58 295 0.0 0.0 0.00 0.00 0.00 94 1024.6
20260830063005 58 295 0.0 0.0 0.00 0.00 0.00 94 1024.6
20260830062503 58 295 0.0 0.0 0.00 0.00 0.00 94 1024.5
20260830062004 58 295 0.0 0.0 0.00 0.00 0.00 94 1024.6
20260830061502 58 295 0.0 0.0 0.00 0.00 0.00 93 1024.6
20260830061005 58 295 0.0 0.0 0.00 0.00 0.00 93 1024.6
20260830060502 58 295 0.0 0.0 0.00 0.00 0.00 93 1024.6
20260830060006 58 295 0.0 2.0 0.00 0.00 0.00 94 1024.6
20260830055004 58 295 0.0 0.0 0.00 0.00 0.00 93 1024.6
20260830054502 58 295 0.0 0.0 0.00 0.00 0.00 93 1024.6
20260830054003 58 295 0.0 0.0 0.00 0.00 0.00 93 1024.7
20260830053503 58 295 0.0 0.0 0.00 0.00 0.00 93 1024.6
20260830052502 58 295 0.0 0.0 0.00 0.00 0.00 93 1024.6
20260830051502 59 295 0.0 0.0 0.00 0.00 0.00 93 1024.6
20260830051004 59 295 0.0 0.0 0.00 0.00 0.00 93 1024.6
20260830050006 59 295 0.0 0.0 0.00 0.00 0.00 93 1024.6
20260830045505 59 295 0.0 0.0 0.00 0.00 0.00 93 1024.6
20260830045007 59 295 0.0 0.0 0.00 0.00 0.00 93 1024.4
20260830044505 59 295 0.0 0.0 0.00 0.00 0.00 93 1024.5
20260830044006 59 295 0.0 0.0 0.00 0.00 0.00 93 1024.5
20260830043506 59 295 0.0 0.0 0.00 0.00 0.00 92 1024.5
20260830043006 59 295 0.0 0.0 0.00 0.00 0.00 92 1024.4
20260830042505 59 295 0.0 0.0 0.00 0.00 0.00 92 1024.5
20260830042006 60 295 0.0 0.0 0.00 0.00 0.00 92 1024.4
20260830041504 60 295 0.0 0.0 0.00 0.00 0.00 92 1024.4
20260830041006 60 295 0.0 0.0 0.00 0.00 0.00 92 1024.4
20260830040504 60 295 0.0 0.0 0.00 0.00 0.00 91 1024.3
20260830040010 60 295 0.0 0.0 0.00 0.00 0.00 91 1024.2
20260830035505 60 295 0.0 0.0 0.00 0.00 0.00 91 1024.2
20260830035008 60 295 0.0 0.0 0.00 0.00 0.00 91 1024.1
20260830034505 60 295 0.0 0.0 0.00 0.00 0.00 91 1024.0
20260830034006 60 295 0.0 0.0 0.00 0.00 0.00 91 1024.1
20260830033006 61 295 0.0 0.0 0.00 0.00 0.00 91 1024.1
20260830032006 61 295 0.0 0.0 0.00 0.00 0.00 90 1024.2
20260830031505 61 295 0.0 0.0 0.00 0.00 0.00 90 1024.3
20260830031006 61 295 0.0 0.0 0.00 0.00 0.00 90 1024.2
20260830030505 61 295 0.0 0.0 0.00 0.00 0.00 90 1024.2
20260830030007 62 295 0.0 0.0 0.00 0.00 0.00 90 1024.1
20260830024505 62 295 0.0 0.0 0.00 0.00 0.00 89 1024.2
20260830024005 62 295 0.0 0.0 0.00 0.00 0.00 89 1024.2
20260830023504 62 295 0.0 0.0 0.00 0.00 0.00 88 1024.2
20260830023006 62 295 0.0 0.0 0.00 0.00 0.00 88 1024.2
20260830022503 63 295 0.0 0.0 0.00 0.00 0.00 88 1024.2
20260830022004 63 295 0.0 0.0 0.00 0.00 0.00 88 1024.3
20260830021505 63 295 0.0 0.0 0.00 0.00 0.00 87 1024.2
20260830021005 63 295 0.0 0.0 0.00 0.00 0.00 87 1024.2
20260830020504 63 295 0.0 0.0 0.00 0.00 0.00 86 1024.1
20260830020006 63 295 0.0 0.0 0.00 0.00 0.00 86 1024.1
20260830015512 64 295 0.0 0.0 0.00 0.00 0.00 86 1024.1
20260830015004 64 295 0.0 0.0 0.00 0.00 0.00 86 1024.2
20260830014505 64 295 0.0 0.0 0.00 0.00 0.00 85 1024.0
20260830014004 64 295 0.0 0.0 0.00 0.00 0.00 84 1023.9
20260830013503 65 295 0.0 0.0 0.00 0.00 0.00 84 1024.0